Weather Roundup
Issued by NWS Chicago, IL

Home | Current Version | Previous Version | Graphics & Text | Print | Product List | Glossary On
Versions: 1 2 3 4 5 6 7 8 9 10 11 12 13 14 15 16 17 18 19 20 21 22 23 24 25 26 27 28 29 30 31 32 33 34 35 36 37 38 39 40 41 42 43 44 45 46 47 48 49 50
000
NZUS59 KLOT 201610
HRRLOT

CHICAGO AREA WEATHER ROUNDUP
NATIONAL WEATHER SERVICE CHICAGO/ROMEOVILLE IL
1100 AM CDT MON OCT 20 2014

NOTE: "FAIR" INDICATES FEW OR NO CLOUDS BELOW 12,000 FEET WITH NO
SIGNIFICANT WEATHER AND/OR OBSTRUCTIONS TO VISIBILITY.

* THESE STATIONS ARE NOT UNDER NWS QUALITY CONTROL. THEY ALSO MAY NOT
  REPORT WEATHER SUCH AS PRECIPITATION OR FOG.

ILZ005-006-012>014-019>023-201700-
NORTHEAST ILLINOIS

CITY           SKY/WX    TMP DP  RH WIND       PRES   REMARKS
OHARE          MOSUNNY   58  46  64 NW12      29.85R
MIDWAY         MOSUNNY   59  48  67 NW7       29.85S
AURORA         SUNNY     59  47  64 NW13      29.87R
LANSING*       SUNNY     57  47  69 NW7       29.85S
JOLIET*        SUNNY     57  47  69 NW7       29.86S
WAUKEGAN       PTSUNNY   57  46  66 W7        29.84R
DUPAGE AIRPORT MOSUNNY   60  47  61 NW13      29.86R
WHEELING       PTSUNNY   59  47  64 N9        29.85S
MORRIS*        SUNNY     59  49  68 N7        29.87R
LEWIS AIRPORT* SUNNY     58  46  65 NW6       29.86R
NORTHERLY IS     N/A     58  46  64 NW6         N/A
$$

WIZ051-052-058>065-066-070>072-201700-
SOUTHEAST WISCONSIN

CITY           SKY/WX    TMP DP  RH WIND       PRES   REMARKS
MILWAUKEE      MOSUNNY   57  46  66 N9        29.85R
KENOSHA*       CLOUDY    57  47  69 NW7       29.85R
RACINE*        CLOUDY    57  46  66 N10       29.86R
BURLINGTON     SUNNY     55  45  68 N10G17    29.85S
WAUKESHA       MOSUNNY   54  45  71 NW13      29.86S
WEST BEND      MOSUNNY   54  43  66 NW9       29.85S
$$

INZ001>003-010>013-019-020-201700-
NORTHWEST INDIANA

CITY           SKY/WX    TMP DP  RH WIND       PRES   REMARKS
GARY*          NOT AVBL
MICHIGAN CITY* NOT AVBL
RENSSELAER*    NOT AVBL
VALPARAISO     MOSUNNY   57  47  69 W7        29.85S
$$

LMZ740>746-201700-
SOUTHERN LAKE MICHIGAN

STATION/POSITION TIME  SKY/WX   TEMP WIND        PRES    VSBY
                                AIR  DIR/SP/G
                 (UTC)          (F)  (DEG/KT/KT) (MB)    (MI)
HARRISON CRIB    1600            54  320/  7/  8   N/A
BURNHAM HARBOR   1600            58  320/  6/ 11   N/A
CALUMET HARBOR   1600            58  280/  2/  5 1009.5R
BURNS HARBOR     NOT AVBL
MICHIGAN CITY    1600            53  240/ 10/ 11   N/A
$$

ABBREVIATIONS USED IN REMARKS
   TC - TEMPERATURE IN CELSIUS
  WCI - WIND CHILL INDEX
   HX - HEAT INDEX
  VSB - VISIBILITY
$$



USA.gov is the U.S. government's official web portal to all federal, state and local government web resources and services.